This is the latest recevied weather packets stored in our database for station/object KB1RMA-4. If no packets are shown the sender has not sent any weather packets the latest 10 day(s).
| Time | Temp. | Humidity | Pressure | Rain* | Wind** | Luminosity | Snow |
|---|---|---|---|---|---|---|---|
| 1787441942 | 18.33° C | 84% | 1016.2 hPa | 0 mm | - | 0 W/m² | - |
| 1787441637 | 18.33° C | 84% | 1016.3 hPa | 0 mm | - | 0 W/m² | - |
| 1787441332 | 18.33° C | 84% | 1016.4 hPa | 0 mm | - | 0 W/m² | - |
| 1787441028 | 18.89° C | 84% | 1016.5 hPa | 0 mm | - | 1 W/m² | - |
| 1787440724 | 18.89° C | 84% | 1016.4 hPa | 0 mm | - | 4 W/m² | - |
| 1787440418 | 18.89° C | 84% | 1016.2 hPa | 0 mm | - | 5 W/m² | - |
| 1787440110 | 18.89° C | 84% | 1016.4 hPa | 0 mm | - | 10 W/m² | - |
| 1787439805 | 18.89° C | 84% | 1016.6 hPa | 0 mm | - | 12 W/m² | - |
| 1787439501 | 18.89° C | 83% | 1016.6 hPa | 0 mm | - | 16 W/m² | - |
| 1787439197 | 18.89° C | 83% | 1016.8 hPa | 0 mm | - | 15 W/m² | - |
| 1787438893 | 18.89° C | 83% | 1016.6 hPa | 0 mm | - | 28 W/m² | - |
| 1787438592 | 18.89° C | 82% | 1016.7 hPa | 0 mm | - | 33 W/m² | - |
| 1787438287 | 18.89° C | 82% | 1016.7 hPa | 0 mm | - | 28 W/m² | - |
| 1787437981 | 18.89° C | 82% | 1016.5 hPa | 0 mm | - | 30 W/m² | - |
| 1787437677 | 18.89° C | 82% | 1016.4 hPa | 0 mm | - | 33 W/m² | - |
| 1787437374 | 18.89° C | 81% | 1016.6 hPa | 0 mm | - | 41 W/m² | - |
| 1787437070 | 19.44° C | 81% | 1016.5 hPa | 0 mm | - | 52 W/m² | - |
| 1787436766 | 19.44° C | 81% | 1016.7 hPa | 0 mm | - | 49 W/m² | - |
| 1787436463 | 20° C | 80% | 1016.8 hPa | 0 mm | - | 56 W/m² | - |
| 1787436161 | 20° C | 80% | 1016.6 hPa | 0 mm | - | 56 W/m² | - |
| 1787435861 | 20° C | 80% | 1017.1 hPa | 0 mm | - | 56 W/m² | - |
| 1787435557 | 20° C | 80% | 1017.1 hPa | 0 mm | - | 82 W/m² | - |
| 1787435254 | 19.44° C | 80% | 1016.9 hPa | 0 mm | - | 110 W/m² | - |
| 1787434949 | 19.44° C | 80% | 1017.1 hPa | 0 mm | - | 93 W/m² | - |
| 1787434647 | 19.44° C | 80% | 1017.3 hPa | 0 mm | - | 67 W/m² | - |
* Rain latest hour (hover to see other rain measurements)
** Current wind speed in m/s (hover to see current wind gust speed)